sat.trackr.live / text

‹ back to catalog

STARLINK-34497

NORAD 64696 · 2025-142A

PAYLOAD ACTIVE UNKNOWN

§ Identity

Operator
Country
US
Launch date
2025-06-28
Launch site
AFWTR
Launch vehicle
Mass (kg)
RCS (m²)

Purposes: comms

External: N2YO · Heavens-Above · Gunter

§ Orbital elements

Epoch: 2026-09-20T11:51:53.875584Z

Period
94.14 min
Inclination
70.0052°
Eccentricity
0.0003429
Mean motion
15.29593117 rev/d
Perigee alt
474.7 km
Apogee alt
479.4 km
Semi-major
6,855.2 km
B*
3.7693e-4
RAAN
181.1766°
Arg perigee
269.1147°
Mean anomaly
90.9635°
Rev number
6,887

§ Raw data

STARLINK-344971 64696U 25142A   26263.49437356  .00010728  00000+0  37693-3 0  99932 64696  70.0052 181.1766 0003429 269.1147  90.9635 15.29593117 68879

JSON: /api/v1/satellites/64696 · /tle

For live sub-satellite position, see the globe view (requires WebGL).

§ Visibility from observer

Set your observer location to see the next 7 days of passes ≥ 10°. The values pass through the URL so the page stays shareable.

No JS? Fill the form by hand. The geolocation button needs JavaScript.